Precipitable_Water
0.28 0.20 0.17 0.19 0.20 0.19 0.16 0.13 0.12 0.15 0.19 0.15 0.13 0.14 0.17 0.20 0.22 0.21 0.23 0.26 0.28 0.29 0.32 0.33 0.34 0.38 0.41 0.42 0.40 0.38 0.37 0.38 0.40 0.41 0.43 0.46 0.46 0.48 0.48 0.49 0.48 0.49 0.50 0.52
0.22 0.17 0.22 0.22 0.20 0.17 0.16 0.14 0.14 0.18 0.19 0.16 0.14 0.13 0.17 0.19 0.21 0.21 0.23 0.26 0.29 0.28 0.31 0.33 0.34 0.36 0.38 0.40 0.40 0.40 0.40 0.41 0.41 0.43 0.46 0.49 0.51 0.51 0.51 0.50 0.50 0.50 0.52 0.52
0.18 0.22 0.23 0.19 0.18 0.15 0.15 0.14 0.15 0.14 0.18 0.18 0.15 0.11 0.14 0.19 0.20 0.21 0.23 0.27 0.30 0.29 0.29 0.32 0.34 0.35 0.37 0.38 0.40 0.41 0.42 0.42 0.44 0.46 0.50 0.52 0.54 0.53 0.51 0.50 0.50 0.51 0.52 0.53
0.19 0.22 0.19 0.18 0.16 0.17 0.13 0.19 0.17 0.16 0.14 0.12 0.18 0.09 0.14 0.18 0.17 0.18 0.22 0.25 0.29 0.30 0.31 0.33 0.35 0.35 0.37 0.38 0.41 0.42 0.44 0.44 0.47 0.49 0.49 0.50 0.48 0.47 0.51 0.51 0.52 0.52 0.53 0.53
0.18 0.17 0.16 0.16 0.17 0.19 0.17 0.21 0.18 0.17 0.15 0.15 0.14 0.12 0.10 0.16 0.15 0.16 0.21 0.24 0.28 0.31 0.32 0.33 0.35 0.37 0.39 0.41 0.43 0.45 0.46 0.48 0.50 0.50 0.51 0.51 0.50 0.52 0.55 0.54 0.52 0.52 0.53 0.54
0.20 0.23 0.21 0.20 0.22 0.21 0.23 0.19 0.19 0.19 0.18 0.11 0.12 0.13 0.10 0.13 0.17 0.19 0.21 0.23 0.27 0.31 0.33 0.36 0.38 0.40 0.41 0.45 0.46 0.47 0.48 0.50 0.52 0.53 0.55 0.54 0.54 0.54 0.53 0.53 0.52 0.52 0.53 0.53
0.19 0.18 0.21 0.23 0.18 0.22 0.21 0.17 0.12 0.13 0.11 0.09 0.17 0.14 0.13 0.21 0.20 0.21 0.22 0.22 0.26 0.30 0.34 0.36 0.38 0.39 0.42 0.44 0.47 0.49 0.51 0.51 0.54 0.55 0.56 0.57 0.58 0.57 0.56 0.55 0.54 0.53 0.52 0.52
0.12 0.12 0.18 0.22 0.21 0.21 0.19 0.20 0.14 0.11 0.10 0.12 0.19 0.12 0.15 0.21 0.22 0.23 0.24 0.26 0.29 0.30 0.34 0.37 0.39 0.40 0.42 0.46 0.49 0.51 0.52 0.52 0.55 0.56 0.58 0.59 0.60 0.59 0.59 0.58 0.57 0.56 0.54 0.53
0.13 0.13 0.21 0.22 0.25 0.25 0.21 0.17 0.23 0.16 0.17 0.13 0.13 0.15 0.21 0.23 0.22 0.23 0.25 0.28 0.30 0.31 0.33 0.37 0.40 0.43 0.45 0.48 0.50 0.51 0.52 0.53 0.56 0.58 0.59 0.59 0.59 0.58 0.57 0.57 0.57 0.55 0.55 0.54
0.22 0.14 0.21 0.22 0.26 0.27 0.25 0.28 0.17 0.19 0.11 0.11 0.13 0.15 0.16 0.22 0.22 0.24 0.27 0.29 0.32 0.35 0.37 0.40 0.45 0.48 0.51 0.54 0.56 0.57 0.56 0.55 0.57 0.59 0.59 0.58 0.59 0.58 0.57 0.57 0.56 0.55 0.54 0.52
0.26 0.21 0.20 0.22 0.20 0.21 0.21 0.21 0.22 0.22 0.20 0.14 0.12 0.15 0.27 0.28 0.30 0.30 0.33 0.36 0.38 0.39 0.42 0.44 0.49 0.53 0.55 0.58 0.59 0.58 0.57 0.57 0.58 0.58 0.59 0.60 0.60 0.60 0.58 0.55 0.54 0.54 0.54 0.55
0.30 0.27 0.20 0.22 0.29 0.30 0.29 0.29 0.29 0.21 0.20 0.24 0.22 0.19 0.35 0.34 0.35 0.38 0.39 0.41 0.44 0.45 0.45 0.48 0.50 0.53 0.56 0.57 0.58 0.57 0.57 0.56 0.57 0.57 0.57 0.56 0.56 0.55 0.54 0.54 0.57 0.59 0.59 0.58
0.35 0.29 0.22 0.23 0.29 0.34 0.29 0.32 0.32 0.31 0.30 0.23 0.22 0.23 0.40 0.41 0.41 0.43 0.42 0.45 0.47 0.47 0.48 0.50 0.52 0.54 0.55 0.57 0.57 0.57 0.56 0.56 0.58 0.58 0.58 0.59 0.56 0.56 0.57 0.57 0.56 0.53 0.51 0.48
0.41 0.32 0.25 0.19 0.22 0.28 0.24 0.25 0.27 0.25 0.20 0.19 0.20 0.22 0.30 0.34 0.35 0.38 0.41 0.44 0.46 0.47 0.49 0.50 0.51 0.53 0.54 0.55 0.55 0.54 0.55 0.59 0.62 0.60 0.58 0.56 0.55 0.54 0.54 0.53 0.51 0.48 0.45 0.41
0.24 0.15 0.17 0.19 0.20 0.20 0.18 0.17 0.18 0.15 0.16 0.15 0.12 0.17 0.22 0.25 0.25 0.27 0.30 0.33 0.35 0.37 0.39 0.42 0.44 0.46 0.48 0.48 0.50 0.53 0.59 0.59 0.59 0.58 0.55 0.53 0.53 0.51 0.49 0.46 0.42 0.40 0.37 0.35
0.22 0.12 0.15 0.09 0.10 0.12 0.12 0.13 0.13 0.14 0.15 0.15 0.15 0.14 0.25 0.29 0.29 0.26 0.27 0.29 0.31 0.35 0.38 0.43 0.47 0.49 0.48 0.49 0.50 0.51 0.53 0.53 0.54 0.53 0.49 0.49 0.47 0.44 0.41 0.38 0.35 0.33 0.32 0.31
0.13 0.11 0.10 0.06 0.11 0.10 0.06 0.09 0.11 0.13 0.15 0.16 0.12 0.19 0.25 0.20 0.20 0.21 0.22 0.25 0.27 0.31 0.34 0.37 0.39 0.42 0.44 0.44 0.46 0.46 0.48 0.48 0.47 0.47 0.44 0.42 0.40 0.37 0.34 0.33 0.31 0.29 0.28 0.27
0.11 0.11 0.11 0.08 0.10 0.04 0.12 0.19 0.18 0.15 0.16 0.18 0.19 0.20 0.20 0.19 0.19 0.22 0.26 0.26 0.27 0.31 0.34 0.37 0.38 0.40 0.42 0.43 0.44 0.45 0.45 0.44 0.43 0.40 0.38 0.37 0.35 0.32 0.31 0.29 0.26 0.25 0.24 0.23
0.17 0.14 0.11 0.08 0.08 0.08 0.10 0.15 0.14 0.12 0.10 0.17 0.15 0.16 0.16 0.19 0.20 0.19 0.28 0.29 0.31 0.33 0.36 0.38 0.41 0.41 0.41 0.42 0.42 0.42 0.41 0.41 0.39 0.35 0.33 0.31 0.29 0.26 0.24 0.23 0.23 0.22 0.21 0.21
0.17 0.19 0.14 0.12 0.08 0.04 0.10 0.17 0.20 0.19 0.07 0.17 0.18 0.15 0.15 0.17 0.10 0.12 0.22 0.26 0.28 0.32 0.37 0.39 0.40 0.41 0.40 0.41 0.41 0.39 0.37 0.35 0.31 0.28 0.26 0.26 0.25 0.23 0.22 0.22 0.22 0.22 0.21 0.20
0.11 0.13 0.10 0.10 0.10 0.10 0.16 0.18 0.21 0.07 0.11 0.21 0.20 0.18 0.16 0.13 0.15 0.19 0.22 0.25 0.30 0.33 0.34 0.37 0.38 0.38 0.38 0.39 0.37 0.32 0.30 0.27 0.26 0.26 0.25 0.24 0.23 0.22 0.22 0.21 0.21 0.21 0.21 0.21
0.09 0.09 0.10 0.11 0.10 0.08 0.18 0.18 0.11 0.16 0.19 0.18 0.18 0.19 0.16 0.19 0.21 0.22 0.24 0.27 0.30 0.30 0.32 0.34 0.34 0.34 0.34 0.32 0.29 0.27 0.25 0.26 0.25 0.24 0.23 0.22 0.21 0.21 0.20 0.20 0.21 0.21 0.20 0.20
0.10 0.12 0.09 0.11 0.09 0.15 0.20 0.17 0.22 0.23 0.18 0.18 0.19 0.20 0.22 0.22 0.22 0.25 0.27 0.29 0.30 0.31 0.31 0.33 0.32 0.30 0.29 0.28 0.26 0.23 0.22 0.22 0.21 0.20 0.19 0.20 0.20 0.20 0.20 0.20 0.20 0.20 0.21 0.20
0.13 0.15 0.12 0.12 0.09 0.13 0.16 0.18 0.18 0.20 0.19 0.21 0.22 0.23 0.24 0.21 0.23 0.26 0.29 0.29 0.30 0.31 0.31 0.31 0.30 0.29 0.25 0.23 0.22 0.21 0.20 0.20 0.19 0.18 0.18 0.19 0.19 0.19 0.20 0.21 0.20 0.20 0.19 0.19
0.14 0.15 0.11 0.11 0.13 0.15 0.17 0.20 0.21 0.20 0.22 0.21 0.22 0.23 0.24 0.25 0.25 0.30 0.31 0.31 0.31 0.31 0.31 0.29 0.26 0.23 0.22 0.21 0.21 0.20 0.18 0.17 0.16 0.16 0.16 0.17 0.18 0.18 0.18 0.19 0.19 0.19 0.19 0.19
0.17 0.15 0.13 0.12 0.18 0.18 0.17 0.21 0.22 0.21 0.22 0.24 0.24 0.24 0.27 0.27 0.29 0.32 0.31 0.31 0.31 0.28 0.26 0.24 0.22 0.21 0.21 0.20 0.19 0.18 0.17 0.16 0.15 0.15 0.15 0.16 0.17 0.17 0.17 0.17 0.16 0.18 0.17 0.18
Wind_Speed
10 11 12 12 11 12 11 12 14 12 9 12 15 18 17 16 15 15 14 13 13 13 13 14 14 15 15 16 16 16 16 16 16 17 17 17 17 17 17 17 17 17 16 15
12 15 11 10 11 12 13 14 15 12 12 14 17 19 19 18 16 14 14 13 13 13 13 14 15 16 16 17 17 17 17 17 18 18 18 18 18 18 18 18 18 18 18 17
17 11 12 13 13 14 15 16 16 15 15 18 19 20 17 16 15 14 15 14 14 15 15 16 17 17 17 17 18 18 18 18 18 18 18 18 18 19 19 19 19 19 18 18
16 13 15 15 16 16 18 14 16 17 17 17 15 17 16 15 17 18 17 16 16 16 16 17 18 18 18 18 18 18 18 18 19 19 19 20 20 20 20 20 20 19 19 18
13 14 14 16 14 16 15 15 16 17 18 18 17 17 18 16 19 20 19 17 17 17 17 18 19 19 19 19 19 19 18 19 19 19 20 20 20 20 20 20 20 20 20 20
14 14 15 15 14 15 14 16 17 18 18 19 19 19 20 19 16 18 17 17 17 18 18 18 19 19 19 19 19 19 19 19 19 19 20 20 20 20 20 21 21 21 21 21
13 14 14 16 16 15 16 16 16 17 16 19 15 17 21 17 15 17 16 17 18 19 20 20 20 21 21 21 21 20 20 20 20 20 20 21 21 21 21 22 22 22 22 22
16 15 14 15 15 15 16 15 16 18 19 18 15 18 18 16 17 17 16 17 19 20 21 22 22 23 23 23 23 22 22 22 22 21 21 21 21 21 21 22 22 22 23 23
15 15 14 14 15 15 14 17 16 19 20 21 23 24 18 18 18 18 18 19 19 20 21 22 23 24 24 24 25 25 24 23 23 23 22 22 21 21 21 22 22 23 23 24
15 18 17 16 17 17 18 17 17 17 20 23 21 20 22 19 20 20 20 21 21 21 22 23 24 25 26 26 26 26 26 25 25 24 23 23 23 22 22 23 23 24 24 25
17 18 17 18 19 18 18 20 20 21 22 22 25 21 18 19 20 22 21 21 22 22 22 23 25 26 27 27 27 27 27 26 26 26 26 24 24 24 25 24 25 26 27 28
17 19 21 21 19 20 21 21 21 22 20 22 23 26 24 24 23 22 23 22 23 24 23 24 25 27 28 29 29 29 29 28 28 28 28 27 27 26 27 27 28 29 30 30
18 19 21 20 18 19 20 20 21 22 24 27 26 25 22 23 25 25 26 27 28 28 29 29 30 31 31 31 31 31 30 30 29 29 30 29 30 30 30 31 32 31 30 31
21 22 23 25 25 22 23 23 24 24 26 29 33 35 30 31 33 34 36 37 38 38 38 37 36 34 33 33 32 32 33 32 31 31 31 31 31 31 33 32 31 31 31 32
20 22 25 27 27 26 26 27 26 28 31 31 37 35 34 35 36 36 36 36 36 35 34 34 33 33 33 33 32 32 32 33 33 31 31 32 32 32 31 31 31 31 32 33
19 21 22 25 27 27 29 29 29 31 31 33 34 36 28 30 31 32 33 34 34 34 33 33 32 32 31 32 32 31 31 31 31 31 30 30 31 30 31 31 31 32 33 34
21 22 22 24 22 27 30 29 27 24 25 26 27 27 29 30 31 32 33 33 34 34 33 34 33 33 32 31 30 30 30 29 29 29 29 29 29 30 31 31 33 33 34 35
22 22 23 26 26 25 24 24 24 27 28 28 30 30 30 31 32 32 31 31 30 28 28 29 30 30 30 29 28 27 27 27 27 27 28 29 30 30 31 32 33 33 34 35
24 25 25 25 27 33 32 27 25 26 28 27 28 28 29 30 32 33 31 30 29 28 26 25 24 24 25 25 25 25 25 25 26 27 27 28 29 30 31 32 32 34 35 36
25 27 26 25 27 28 25 24 26 27 33 27 25 27 30 30 32 32 29 29 28 26 25 23 22 21 22 22 23 24 24 25 26 27 27 28 30 31 31 32 33 35 36 36
25 27 30 30 30 32 27 26 27 28 26 26 31 33 32 33 33 32 29 28 25 23 22 22 22 23 22 23 24 24 25 26 26 27 28 29 30 31 33 34 35 35 36 36
28 26 27 29 30 32 25 24 28 29 32 33 35 36 36 36 34 32 30 26 24 22 21 21 22 23 24 24 25 25 25 26 26 28 29 31 32 32 33 33 33 33 33 32
30 31 31 29 28 23 29 33 33 35 37 37 36 35 35 34 33 32 29 26 25 23 21 21 22 22 23 23 23 23 24 25 26 28 29 29 29 29 29 29 28 28 28 27
32 32 32 31 33 29 30 33 34 33 34 35 36 36 35 33 32 31 29 27 25 23 23 22 22 22 22 22 22 22 23 24 25 26 26 26 25 25 25 24 24 24 24 24
31 31 31 35 34 32 29 28 31 34 35 36 36 36 35 33 31 28 26 25 25 24 22 22 22 22 22 21 21 22 22 23 23 22 21 21 21 21 21 21 21 21 22 22
31 30 29 29 28 30 33 32 35 35 35 35 35 33 31 30 28 26 26 24 24 23 23 22 22 22 22 22 22 22 21 21 20 20 19 19 19 19 20 19 19 19 19 19
Wind_Direction
251 253 254 264 259 281 282 283 280 283 284 284 275 277 273 272 275 271 264 264 254 250 246 238 234 233 234 236 238 241 243 245 247 250 251 252 252 252 251 250 249 250 251 254
254 256 268 269 271 271 273 275 277 278 281 282 283 280 277 275 271 265 264 261 252 248 245 239 236 237 237 238 241 243 246 247 250 253 254 254 253 253 251 249 249 249 250 253
257 266 264 265 266 267 268 270 278 281 287 278 286 280 269 267 263 264 265 262 256 251 247 242 239 240 241 241 243 246 249 250 252 254 254 254 254 252 251 249 249 249 250 252
262 263 262 265 268 267 275 282 278 281 284 282 282 284 272 261 263 262 261 258 254 254 252 247 243 243 243 243 246 248 250 252 254 254 254 252 253 251 250 249 249 249 250 253
262 264 261 263 271 271 278 280 280 280 281 286 270 277 280 276 267 261 257 256 255 256 254 249 245 245 245 245 247 249 251 254 255 254 254 253 253 252 250 248 247 249 251 253
268 268 271 273 274 276 271 278 278 280 279 277 277 269 277 274 278 268 252 257 258 257 256 251 249 247 246 246 248 249 251 253 255 255 255 253 253 252 250 248 249 250 252 254
264 265 271 272 271 273 272 275 281 277 275 278 278 271 275 287 287 283 258 260 262 259 255 251 250 248 247 247 247 250 251 253 255 257 256 255 254 253 251 249 250 251 253 255
273 270 273 276 275 274 265 268 273 279 282 289 279 275 281 287 284 281 273 268 266 262 258 254 252 249 248 248 248 251 252 254 254 255 256 256 254 254 252 252 251 253 254 257
277 271 274 278 275 274 271 267 278 278 277 279 276 277 280 284 280 276 272 269 269 267 261 257 253 251 250 250 249 251 254 255 254 254 255 255 254 254 254 253 254 255 256 258
280 278 278 277 274 274 272 278 273 274 280 279 278 284 280 290 286 279 274 271 271 268 264 259 255 253 252 252 252 253 255 255 254 252 253 254 253 254 255 256 257 257 259 260
277 277 278 277 271 273 272 274 272 277 274 278 283 279 285 289 292 289 280 276 271 268 266 262 259 256 254 255 254 254 255 255 253 252 251 254 254 254 255 259 260 261 262 264
280 279 277 281 281 280 279 278 273 273 274 276 280 278 286 285 286 283 282 277 274 272 269 266 262 259 257 257 253 255 255 254 252 254 252 255 255 256 258 259 262 265 265 264
280 279 285 279 281 280 277 276 276 276 277 273 275 278 279 284 287 284 281 277 273 271 270 268 267 262 260 257 255 254 252 254 252 255 253 256 255 258 261 264 265 265 263 264
283 280 276 277 287 283 278 276 276 275 277 279 272 280 281 285 286 285 282 279 276 274 271 269 267 263 261 258 255 255 256 253 253 255 255 255 259 260 264 266 263 263 264 266
286 282 282 282 284 283 279 279 275 271 274 274 282 283 286 287 287 286 285 283 277 274 271 269 267 264 262 259 256 255 255 252 254 254 256 257 258 262 263 263 263 264 266 268
288 287 291 286 283 280 281 280 278 276 277 278 281 283 285 285 287 287 287 284 280 275 271 268 265 260 260 257 255 254 250 251 252 251 256 256 259 260 261 263 264 266 268 270
289 289 290 287 292 293 285 281 276 278 279 281 281 286 288 288 291 290 290 288 282 277 272 268 264 260 258 256 252 250 249 250 250 251 253 256 258 262 263 265 267 268 269 271
285 284 286 288 292 285 290 287 287 285 285 283 285 286 288 288 289 289 289 288 286 281 275 268 263 258 255 252 249 247 248 247 249 251 255 259 261 263 265 267 269 269 271 273
276 281 286 286 283 287 283 284 281 283 287 282 284 286 288 289 291 289 285 287 286 281 276 271 262 253 248 245 243 244 246 248 251 254 259 260 263 266 268 269 268 272 275 276
284 280 283 282 285 287 290 285 289 289 286 282 282 286 289 289 290 293 289 286 283 278 272 265 256 248 244 242 242 245 249 252 256 259 261 264 266 267 269 271 272 274 275 276
285 281 275 277 281 285 289 285 285 284 289 284 287 288 290 287 286 289 286 283 279 274 267 258 251 246 245 246 249 252 254 256 260 263 265 268 270 271 272 273 274 275 276 277
280 281 282 281 282 281 282 282 283 289 288 291 291 290 288 285 285 282 278 275 272 269 264 257 252 249 248 251 254 256 258 261 264 267 269 271 272 273 274 274 275 276 276 276
285 280 285 275 282 284 279 284 287 289 290 291 290 290 288 285 282 277 271 268 266 265 260 257 254 249 251 252 255 258 260 264 268 271 273 274 274 274 273 274 274 275 275 275
286 283 280 280 281 286 287 286 288 290 291 291 291 290 286 283 280 273 267 264 260 259 259 257 252 251 251 254 256 260 264 269 272 275 275 275 274 274 274 274 274 274 274 275
289 287 283 281 282 285 284 289 292 292 292 293 293 290 285 281 277 268 263 260 257 255 254 254 251 250 250 252 258 263 268 272 275 275 275 274 274 274 275 274 275 274 274 275
286 285 279 279 288 285 286 290 293 293 293 294 294 292 286 278 272 264 262 258 253 250 250 252 249 248 249 254 261 264 269 272 273 273 274 274 275 275 275 275 276 275 274 275